This is the latest recevied weather packets stored in our database for station/object PA1CG-7. If no packets are shown the sender has not sent any weather packets the latest 10 day(s).
| Time | Temp. | Humidity | Pressure | Rain* | Wind** | Luminosity | Snow |
|---|---|---|---|---|---|---|---|
| 1777534457 | 13.33° C | 45% | 1028.3 hPa | 0 mm | - | - | - |
| 1777533856 | 12.78° C | 46% | 1028.2 hPa | 0 mm | - | - | - |
| 1777533256 | 12.78° C | 47% | 1028.3 hPa | 0 mm | - | - | - |
| 1777532657 | 12.22° C | 48% | 1028.1 hPa | 0 mm | - | - | - |
| 1777532056 | 12.22° C | 48% | 1028 hPa | 0 mm | - | - | - |
| 1777531456 | 11.67° C | 49% | 1028.1 hPa | 0 mm | - | - | - |
| 1777530856 | 11.67° C | 50% | 1028 hPa | 0 mm | - | - | - |
| 1777530257 | 11.67° C | 50% | 1028.2 hPa | 0 mm | - | - | - |
| 1777529656 | 11.11° C | 51% | 1027.9 hPa | 0 mm | - | - | - |
| 1777529056 | 11.11° C | 51% | 1028 hPa | 0 mm | - | - | - |
| 1777528457 | 11.11° C | 53% | 1028 hPa | 0 mm | - | - | - |
| 1777527856 | 10.56° C | 53% | 1027.9 hPa | 0 mm | - | - | - |
| 1777527256 | 10.56° C | 53% | 1027.8 hPa | 0 mm | - | - | - |
| 1777526656 | 10.56° C | 54% | 1027.8 hPa | 0 mm | - | - | - |
| 1777526056 | 10° C | 55% | 1027.7 hPa | 0 mm | - | - | - |
| 1777525456 | 10° C | 55% | 1027.7 hPa | 0 mm | - | - | - |
| 1777524856 | 10° C | 55% | 1027.7 hPa | 0 mm | - | - | - |
| 1777524256 | 10° C | 55% | 1027.6 hPa | 0 mm | - | - | - |
| 1777523656 | 10° C | 56% | 1027.6 hPa | 0 mm | - | - | - |
| 1777523056 | 10° C | 56% | 1027.5 hPa | 0 mm | - | - | - |
| 1777522456 | 10° C | 56% | 1027.4 hPa | 0 mm | - | - | - |
| 1777521856 | 10° C | 56% | 1027.4 hPa | 0 mm | - | - | - |
| 1777521256 | 10.56° C | 56% | 1027.4 hPa | 0 mm | - | - | - |
| 1777520656 | 10.56° C | 55% | 1027.4 hPa | 0 mm | - | - | - |
| 1777520056 | 10.56° C | 54% | 1027.4 hPa | 0 mm | - | - | - |
* Rain latest hour (hover to see other rain measurements)
** Current wind speed in m/s (hover to see current wind gust speed)